User: anonymous   Login
Location: Unspecified
(0.0000°N, 0.0000°E)
Time: 13:17:47
(UTC+00:00)
Language:

NNS O-32 - Orbit

View from above orbital plane
View from above orbital plane
View from above satellite
View from above satellite

Ground track
Ground track

The orbit data is extracted from the following two-line orbital elements,

1 19071U 88033B   17086.58094281 +.00000073 +00000-0 +13201-3 0  9999
2 19071 090.3570 270.6512 0188969 017.3252 014.6940 13.27588068400554
Epoch (UTC): 27 March 2017 13:56:33
Eccentricity: 0.0188969
inclination: 90.3570°
perigee height: 1013 km
apogee height: 1298 km
right ascension of ascending node: 270.6512°
argument of perigee: 17.3252°
revolutions per day: 13.27588068
mean anomaly at epoch: 14.6940°
orbit number at epoch: 40055

The dashed part of the orbit path shows where the satellite is in the earth's shadow,  

DLR